Satellite: HAWKSAT1
Catalog number: 35003
Epoch time:      10177.34357173
Element set:     324
Inclination:      040.4581 deg
RA of node:       151.6076 deg
Eccentricity:    0.0020651
Arg of perigee:   090.3837 deg
Mean anomaly:     269.9344 deg
Mean motion:   15.45535497 rev/day
Decay rate:      5.924e-05 rev/day^2
Epoch rev:            6213
Checksum:              287

Satellite: FALCON
Catalog number: 30776
Epoch time:      10177.57672451
Element set:     857
Inclination:      035.4348 deg
RA of node:       347.2854 deg
Eccentricity:    0.0001900
Arg of perigee:   300.5397 deg
Mean anomaly:     059.5131 deg
Mean motion:   15.03695846 rev/day
Decay rate:       3.72e-06 rev/day^2
Epoch rev:           18147
Checksum:              306

Satellite: RS-30
Catalog number: 32953
Epoch time:      10177.62708940
Element set:     818
Inclination:      082.5007 deg
RA of node:       023.8086 deg
Eccentricity:    0.0019940
Arg of perigee:   081.3177 deg
Mean anomaly:     279.0156 deg
Mean motion:   12.43005735 rev/day
Decay rate:        1.0e-07 rev/day^2
Epoch rev:            9491
Checksum:              288

Satellite: METEOR-M
Catalog number: 35865
Epoch time:      10177.70481521
Element set:     418
Inclination:      098.7574 deg
RA of node:       231.4355 deg
Eccentricity:    0.0002677
Arg of perigee:   357.2670 deg
Mean anomaly:     002.8441 deg
Mean motion:   14.21830720 rev/day
Decay rate:       1.76e-06 rev/day^2
Epoch rev:            4007
Checksum:              281

Satellite: RS-38
Catalog number: 35869
Epoch time:      10177.74564758
Element set:     427
Inclination:      098.7561 deg
RA of node:       231.5095 deg
Eccentricity:    0.0004588
Arg of perigee:   349.2765 deg
Mean anomaly:     010.8248 deg
Mean motion:   14.21983928 rev/day
Decay rate:       1.77e-06 rev/day^2
Epoch rev:            4008
Checksum:              346

Satellite: CAPE1
Catalog number: 31130
Epoch time:      10177.78210900
Element set:     919
Inclination:      097.9366 deg
RA of node:       216.6896 deg
Eccentricity:    0.0102259
Arg of perigee:   203.3080 deg
Mean anomaly:     156.3474 deg
Mean motion:   14.52191973 rev/day
Decay rate:       4.19e-06 rev/day^2
Epoch rev:           16905
Checksum:              300

Satellite: COMPASS
Catalog number: 32787
Epoch time:      10177.82438518
Element set:     708
Inclination:      097.8940 deg
RA of node:       242.4498 deg
Eccentricity:    0.0014638
Arg of perigee:   253.5367 deg
Mean anomaly:     106.4268 deg
Mean motion:   14.81896459 rev/day
Decay rate:       6.17e-06 rev/day^2
Epoch rev:           11692
Checksum:              344

Satellite: CASTOR
Catalog number: 35694
Epoch time:      10177.92826428
Element set:     505
Inclination:      051.6320 deg
RA of node:       147.8910 deg
Eccentricity:    0.0001953
Arg of perigee:   030.4851 deg
Mean anomaly:     329.6297 deg
Mean motion:   16.04207036 rev/day
Decay rate:     9.0168e-04 rev/day^2
Epoch rev:            5262
Checksum:              293

Satellite: HUBBLE
Catalog number: 20580
Epoch time:      10178.02137213
Element set:     590
Inclination:      028.4684 deg
RA of node:       175.6594 deg
Eccentricity:    0.0003136
Arg of perigee:   303.6438 deg
Mean anomaly:     056.3912 deg
Mean motion:   15.00989994 rev/day
Decay rate:       3.22e-06 rev/day^2
Epoch rev:           90623
Checksum:              290

Satellite: ISS
Catalog number: 25544
Epoch time:      10178.03972080
Element set:     394
Inclination:      051.6470 deg
RA of node:       180.1781 deg
Eccentricity:    0.0009824
Arg of perigee:   012.9677 deg
Mean anomaly:     028.9811 deg
Mean motion:   15.72002369 rev/day
Decay rate:      6.310e-05 rev/day^2
Epoch rev:           66502
Checksum:              287

/EX




More information about the Keps mailing list